This is the latest recevied weather packets stored in our database for station/object N8RJC-13. If no packets are shown the sender has not sent any weather packets the latest 1 day(s).
| Time | Temp. | Humidity | Pressure | Rain* | Wind** | Luminosity | Snow |
|---|---|---|---|---|---|---|---|
| 1778077701 | 10.56° C | 79% | 989.2 hPa | 0 mm | 1.34 m/s, 35° | - | - |
| 1778077581 | 10.56° C | 79% | 989.2 hPa | 0 mm | 1.34 m/s, 35° | - | - |
| 1778077521 | 10.56° C | 82% | 988.9 hPa | 0 mm | 1.79 m/s, 355° | - | - |
| 1778077461 | 10.56° C | 82% | 988.9 hPa | 0 mm | 1.79 m/s, 355° | - | - |
| 1778077341 | 10.56° C | 82% | 988.9 hPa | 0 mm | 1.79 m/s, 355° | - | - |
| 1778077281 | 10.56° C | 82% | 988.9 hPa | 0 mm | 1.79 m/s, 355° | - | - |
| 1778077041 | 11.11° C | 82% | 988.9 hPa | 0 mm | 0.89 m/s, 6° | - | - |
| 1778076981 | 11.11° C | 82% | 988.9 hPa | 0 mm | 0.89 m/s, 6° | - | - |
| 1778076861 | 10.56° C | 82% | 988.9 hPa | 0 mm | 0.89 m/s, 324° | - | - |
| 1778076801 | 10.56° C | 82% | 988.9 hPa | 0 mm | 0.89 m/s, 324° | - | - |
| 1778076681 | 10.56° C | 82% | 988.9 hPa | 0 mm | 0.89 m/s, 324° | - | - |
| 1778076621 | 9.44° C | 83% | 988.5 hPa | 0 mm | 0.89 m/s, 23° | - | - |
| 1778076561 | 9.44° C | 83% | 988.5 hPa | 0 mm | 0.89 m/s, 23° | - | - |
| 1778076501 | 9.44° C | 83% | 988.5 hPa | 0 mm | 0.89 m/s, 23° | - | - |
| 1778076441 | 9.44° C | 83% | 988.5 hPa | 0 mm | 0.89 m/s, 23° | - | - |
| 1778076381 | 9.44° C | 83% | 988.5 hPa | 0 mm | 0.89 m/s, 23° | - | - |
| 1778076261 | 9.44° C | 84% | 988.9 hPa | 0 mm | 2.68 m/s, 21° | - | - |
| 1778076141 | 9.44° C | 84% | 988.9 hPa | 0 mm | 2.68 m/s, 21° | - | - |
| 1778076081 | 9.44° C | 84% | 988.9 hPa | 0 mm | 2.68 m/s, 21° | - | - |
| 1778075841 | 9.44° C | 85% | 988.8 hPa | 0 mm | 1.79 m/s, 354° | - | - |
| 1778075781 | 9.44° C | 85% | 988.8 hPa | 0 mm | 1.79 m/s, 354° | - | - |
| 1778075721 | 9.44° C | 86% | 989.1 hPa | 0 mm | 1.34 m/s, 354° | - | - |
| 1778075661 | 9.44° C | 86% | 989.1 hPa | 0 mm | 1.34 m/s, 354° | - | - |
| 1778075421 | 8.89° C | 85% | 989.1 hPa | 0 mm | 0.45 m/s, 334° | - | - |
| 1778075361 | 8.89° C | 85% | 989.1 hPa | 0 mm | 0.45 m/s, 334° | - | - |
* Rain latest hour (hover to see other rain measurements)
** Current wind speed in m/s (hover to see current wind gust speed)